This is the latest recevied weather packets stored in our database for station/object LA1HSA-13. If no packets are shown the sender has not sent any weather packets the latest 10 day(s).
| Time | Temp. | Humidity | Pressure | Rain* | Wind** | Luminosity | Snow |
|---|---|---|---|---|---|---|---|
| 1777743003 | 11.67° C | 69% | 1009.1 hPa | 0 mm | - | - | - |
| 1777742403 | 11.67° C | 69% | 1009.3 hPa | 0 mm | - | - | - |
| 1777741803 | 11.67° C | 68% | 1009.4 hPa | 0 mm | - | - | - |
| 1777741203 | 12.22° C | 65% | 1009.4 hPa | 0 mm | - | - | - |
| 1777740603 | 12.22° C | 63% | 1009.5 hPa | 0 mm | - | - | - |
| 1777740003 | 12.22° C | 61% | 1009.5 hPa | 0 mm | - | - | - |
| 1777739403 | 12.78° C | 61% | 1009.8 hPa | 0 mm | - | - | - |
| 1777738803 | 13.33° C | 58% | 1009.7 hPa | 0 mm | - | - | - |
| 1777738203 | 13.33° C | 55% | 1009.8 hPa | 0 mm | - | - | - |
| 1777737603 | 13.33° C | 54% | 1010 hPa | 0 mm | - | - | - |
| 1777737003 | 13.33° C | 54% | 1009.8 hPa | 0 mm | - | - | - |
| 1777736403 | 13.89° C | 53% | 1009.6 hPa | 0 mm | - | - | - |
| 1777735804 | 13.89° C | 50% | 1009.5 hPa | 0 mm | - | - | - |
| 1777735203 | 14.44° C | 45% | 1009.6 hPa | 0 mm | - | - | - |
| 1777734603 | 15.56° C | 41% | 1009.3 hPa | 0 mm | - | - | - |
| 1777734003 | 16.11° C | 42% | 1009.6 hPa | 0 mm | - | - | - |
| 1777733403 | 16.67° C | 41% | 1009.5 hPa | 0 mm | - | - | - |
| 1777732803 | 16.67° C | 40% | 1009.5 hPa | 0 mm | - | - | - |
| 1777732203 | 17.22° C | 38% | 1009.6 hPa | 0 mm | - | - | - |
| 1777731603 | 16.67° C | 37% | 1009.9 hPa | 0 mm | - | - | - |
| 1777731003 | 17.22° C | 38% | 1009.8 hPa | 0 mm | - | - | - |
| 1777730403 | 17.78° C | 41% | 1009.6 hPa | 0 mm | - | - | - |
| 1777729803 | 17.78° C | 42% | 1010 hPa | 0 mm | - | - | - |
| 1777729203 | 16.67° C | 44% | 1010 hPa | 0 mm | - | - | - |
| 1777728603 | 16.67° C | 42% | 1010.1 hPa | 0 mm | - | - | - |
* Rain latest hour (hover to see other rain measurements)
** Current wind speed in m/s (hover to see current wind gust speed)